Location: Bathurst
(33.4193°S, 149.5775°E)
Time: 23:31:36
(UTC+10:00)

Vanguard 3 - Pass Details

Date: 27 June 2021
Orbit: 508 x 3261 km, 33.4° (Epoch: 25 July)

Event Time Altitude Azimuth Distance (km) Brightness Sun altitude
Rises 21:07:21 0° 256° (WSW) 7,021 12.5 -50.0°
Reaches altitude 10° 21:11:54 10° 257° (WSW) 6,135 12.1 -50.9°
Enters shadow 21:29:35 65° 302° (WNW) 3,316 10.0 -54.6°
